GLOBALSTAR M001 1 25162U 98008A 25348.76116817 -.00000049 00000+0 36356-3 0 9999 2 25162 52.0005 167.6428 0000258 302.5053 70.6374 12.38223656266084 GLOBALSTAR M004 1 25163U 98008B 25348.91542431 -.00000070 00000+0 18515-3 0 9993 2 25163 51.9989 222.7889 0003152 350.8930 22.1096 12.63411036284536 GLOBALSTAR M002 1 25164U 98008C 25348.71334728 -.00000056 00000+0 39407-3 0 9997 2 25164 51.9982 147.5622 0002634 108.7552 251.3554 11.61514732205041 GLOBALSTAR M003 1 25165U 98008D 25348.82822942 -.00000196 00000+0 -11393-2 0 9999 2 25165 51.9927 28.1998 0007716 297.1441 234.7674 12.12042427255123 GLOBALSTAR M014 1 25306U 98023A 25348.93992832 -.00000088 00000+0 -19118-3 0 9995 2 25306 51.9854 66.4164 0000361 359.9233 170.7646 11.65483630212240 GLOBALSTAR M006 1 25307U 98023B 25348.68917259 -.00000062 00000+0 27053-3 0 9996 2 25307 51.9921 126.2701 0004122 84.9956 16.7700 11.58178830237741 GLOBALSTAR M015 1 25308U 98023C 25348.92230064 -.00000071 00000+0 50036-4 0 9994 2 25308 51.9806 232.4484 0013509 39.9425 333.0535 11.48862689214851 GLOBALSTAR M008 1 25309U 98023D 25348.90676565 -.00000088 00000+0 60944-4 0 9990 2 25309 51.9989 34.0971 0002856 188.8965 342.0136 12.36076702260193 GLOBALSTAR M023 1 25621U 99004A 25348.93077215 -.00000070 00000+0 18737-3 0 9990 2 25621 52.0091 223.0698 0009986 161.7853 212.3099 12.62510381238567 GLOBALSTAR M040 1 25622U 99004B 25348.83156821 -.00000097 00000+0 37862-4 0 9991 2 25622 51.9904 227.7925 0001900 68.9566 8.4120 12.62025027238062 GLOBALSTAR M036 1 25623U 99004C 25348.63241491 -.00000074 00000+0 13249-3 0 9995 2 25623 51.9952 124.6969 0010879 40.8470 331.9994 11.86618334200401 GLOBALSTAR M038 1 25624U 99004D 25348.94242487 -.00000081 00000+0 11867-3 0 9998 2 25624 51.9982 271.0134 0002577 64.8448 12.0470 12.32537400224669 GLOBALSTAR M022 1 25649U 99012A 25348.88947457 -.00000037 00000+0 59380-3 0 9999 2 25649 52.0010 159.6660 0003220 148.2784 21.3773 12.02508099198119 GLOBALSTAR M041 1 25650U 99012B 25348.88620789 -.00000096 00000+0 -14292-3 0 9996 2 25650 52.0038 46.6350 0000745 324.2757 35.8030 11.96681284199912 GLOBALSTAR M046 1 25651U 99012C 25348.78449623 -.00000202 00000+0 -12487-2 0 9994 2 25651 52.0049 103.4924 0001466 228.4640 289.5404 12.09416517205518 GLOBALSTAR M037 1 25652U 99012D 25348.79339587 -.00000065 00000+0 21463-3 0 9994 2 25652 52.0027 354.0382 0001814 223.1852 307.3484 12.62458330234080 GLOBALSTAR M045 1 25676U 99019A 25348.96163624 -.00000068 00000+0 22711-3 0 9993 2 25676 51.9940 150.0189 0001028 113.1065 57.7699 12.27070551215582 GLOBALSTAR M019 1 25677U 99019B 25348.92769750 .00000006 00000+0 99585-3 0 9996 2 25677 51.9888 293.2028 0001622 347.4941 82.4842 12.13876624207093 GLOBALSTAR M044 1 25678U 99019C 25348.81116627 -.00000045 00000+0 53355-3 0 9993 2 25678 51.9975 267.4831 0006811 29.7174 7.5976 11.90261531192839 GLOBALSTAR M042 1 25679U 99019D 25348.90217348 -.00000042 00000+0 47055-3 0 9993 2 25679 52.0017 260.7878 0002948 329.3278 106.3579 12.22094048207351 GLOBALSTAR M025 1 25770U 99031A 25348.63163456 -.00000058 00000+0 30757-3 0 9997 2 25770 51.9813 101.2555 0003022 95.2130 6.5877 11.22558930501977 GLOBALSTAR M049 1 25771U 99031B 25348.74095812 -.00000112 00000+0 -16371-2 0 9997 2 25771 51.9843 144.8399 0002185 341.1433 18.9282 11.12123743137519 GLOBALSTAR M047 1 25772U 99031C 25348.73814670 -.00000063 00000+0 16814-3 0 9995 2 25772 51.9812 124.5651 0016171 208.8838 151.1073 11.31931759491550 GLOBALSTAR M052 1 25773U 99031D 25348.95672398 -.00000101 00000+0 -11796-2 0 9996 2 25773 51.9861 250.4857 0003307 95.6861 350.4364 11.15062357498675 GLOBALSTAR M035 1 25851U 99037A 25348.78497525 -.00000104 00000+0 -15373-2 0 9995 2 25851 51.9982 12.2128 0013555 273.9595 257.4069 11.04540317116212 GLOBALSTAR M032 1 25852U 99037B 25348.85452569 -.00000057 00000+0 31663-3 0 9990 2 25852 51.9913 184.7938 0013756 108.6748 251.5546 11.19075090155011 GLOBALSTAR M051 1 25853U 99037C 25348.68071967 -.00000112 00000+0 -99656-3 0 9990 2 25853 51.9822 325.4723 0000147 45.3887 314.6936 11.42203318153012 GLOBALSTAR M030 1 25854U 99037D 25348.76760092 -.00000052 00000+0 47681-3 0 9997 2 25854 51.9865 119.8823 0003382 32.2200 327.8823 11.55110201170915 GLOBALSTAR M048 1 25872U 99041A 25348.93025031 -.00000067 00000+0 86806-4 0 9997 2 25872 51.9373 266.8932 0013314 133.7080 304.5284 11.33860911145485 GLOBALSTAR M026 1 25873U 99041B 25348.79097333 -.00000019 00000+0 16620-2 0 9998 2 25873 51.9989 128.2509 0001863 171.3870 338.4650 11.06849421168482 GLOBALSTAR M043 1 25874U 99041C 25348.81766278 -.00000024 00000+0 13000-2 0 9998 2 25874 51.9431 21.9991 0013440 257.1957 274.0091 11.25697121143219 GLOBALSTAR M028 1 25875U 99041D 25348.78112201 -.00000099 00000+0 12929-4 0 9999 2 25875 51.9644 14.5601 0063575 103.7861 257.0085 12.50592488212777 GLOBALSTAR M024 1 25883U 99043A 25348.38773966 -.00000109 00000+0 -15803-2 0 9992 2 25883 52.0045 334.0256 0001672 27.9789 121.8914 11.10166592134876 GLOBALSTAR M027 1 25884U 99043B 25348.88719603 -.00000047 00000+0 63981-3 0 9997 2 25884 52.0233 55.9993 0020976 282.2015 77.6429 11.04372182161202 GLOBALSTAR M054 1 25885U 99043C 25348.90141675 -.00000045 00000+0 66155-3 0 9993 2 25885 52.0104 152.9391 0005957 121.6144 47.4424 11.39224846139645 GLOBALSTAR M053 1 25886U 99043D 25348.83893509 -.00000067 00000+0 34033-4 0 9991 2 25886 51.9972 110.2060 0003639 48.3066 119.1079 11.27668998139820 GLOBALSTAR M058 1 25907U 99049A 25348.75004094 -.00000090 00000+0 -80142-4 0 9994 2 25907 51.9968 347.0211 0001722 262.1980 97.8660 11.93206624563094 GLOBALSTAR M050 1 25908U 99049B 25348.99702552 -.00000126 00000+0 -42704-3 0 9996 2 25908 52.0010 340.5288 0009304 32.3487 343.3361 12.07461888170036 GLOBALSTAR M033 1 25909U 99049C 25348.87809575 -.00000041 00000+0 49000-3 0 9998 2 25909 51.9881 200.2083 0013113 278.0348 81.9011 12.20294497557800 GLOBALSTAR M055 1 25910U 99049D 25348.90586865 -.00000061 00000+0 28276-3 0 9992 2 25910 51.9991 202.0771 0007543 138.3701 221.7726 12.29437982190514 GLOBALSTAR M057 1 25943U 99058A 25348.95309992 -.00000042 00000+0 45975-3 0 9991 2 25943 51.9955 195.1884 0003268 41.6414 318.4684 12.24831992189085 GLOBALSTAR M059 1 25944U 99058B 25348.60587606 -.00000092 00000+0 -68848-4 0 9995 2 25944 52.0028 79.0763 0000511 119.1808 350.1117 11.99988156595701 GLOBALSTAR M056 1 25945U 99058C 25348.72890054 -.00000119 00000+0 -36548-3 0 9994 2 25945 51.9973 76.0754 0001432 161.2023 2.1220 12.04781101184381 GLOBALSTAR M031 1 25946U 99058D 25348.69206667 .00000006 00000+0 97761-3 0 9999 2 25946 51.9981 317.6938 0001060 178.9871 351.6140 12.16044938186504 GLOBALSTAR M039 1 25961U 99062A 25348.61583982 -.00000056 00000+0 26801-3 0 9994 2 25961 51.9852 79.1581 0002642 44.3816 315.7262 12.62339488203003 GLOBALSTAR M034 1 25962U 99062B 25348.78940608 -.00000037 00000+0 69855-3 0 9990 2 25962 51.9874 261.9249 0015041 24.6449 350.1595 11.79453976159705 GLOBALSTAR M029 1 25963U 99062C 25348.72501597 -.00000086 00000+0 10318-5 0 9991 2 25963 51.9833 326.6372 0002541 104.8717 65.9152 11.99903817190797 GLOBALSTAR M061 1 25964U 99062D 25348.73077896 -.00000092 00000+0 -19347-3 0 9990 2 25964 51.9795 88.5056 0005087 304.1452 224.1273 11.76777997142431 GLOBALSTAR M063 1 26081U 00008A 25348.76769190 -.00000135 00000+0 -77305-3 0 9997 2 26081 51.9984 355.9840 0004559 301.7219 228.7704 11.86178583179000 GLOBALSTAR M062 1 26082U 00008B 25348.60370339 -.00000122 00000+0 -16652-3 0 9998 2 26082 51.9862 285.2263 0007188 131.5599 39.9982 12.43478889519061 GLOBALSTAR M060 1 26083U 00008C 25348.81107400 -.00000080 00000+0 11306-3 0 9992 2 26083 52.0023 270.1802 0003483 117.4013 276.7627 12.17670791174378 GLOBALSTAR M064 1 26084U 00008D 25348.70480781 -.00000098 00000+0 -21310-3 0 9993 2 26084 52.0031 92.8486 0001860 72.7573 287.3463 11.88539319188565 GLOBALSTAR M065 1 31571U 07020A 25348.90568046 -.00000106 00000+0 -13846-4 0 9990 2 31571 51.9911 36.2119 0009626 350.7399 182.5809 12.62015638856226 GLOBALSTAR M069 1 31573U 07020C 25348.90824712 -.00000066 00000+0 24329-3 0 9998 2 31573 52.0047 53.7051 0002392 129.8519 41.3109 12.23464716856240 GLOBALSTAR M072 1 31574U 07020D 25348.92583576 -.00000063 00000+0 29320-3 0 9994 2 31574 51.9915 230.8009 0001233 6.3423 7.5418 11.91654330853016 GLOBALSTAR M071 1 31576U 07020F 25348.73641822 -.00000151 00000+0 -59373-3 0 9994 2 31576 52.0070 84.8992 0001672 118.8299 47.2876 12.18262900516942 GLOBALSTAR M067 1 32263U 07048A 25348.87888034 -.00000086 00000+0 82568-4 0 9990 2 32263 51.9712 227.2088 0001877 38.2723 44.1370 12.40682779831917 GLOBALSTAR M070 1 32264U 07048B 25348.89827274 -.00000086 00000+0 99718-4 0 9997 2 32264 51.9765 297.9793 0000398 65.0306 329.5533 12.62327379836490 GLOBALSTAR M066 1 32265U 07048C 25348.92396089 -.00000082 00000+0 10283-3 0 9992 2 32265 51.9577 226.8801 0005561 26.0159 88.7755 12.30383151837545 GLOBALSTAR M068 1 32266U 07048D 25348.78861865 -.00000064 00000+0 22080-3 0 9994 2 32266 51.9876 111.7156 0001725 144.9797 8.3175 12.62835393840373 GLOBALSTAR M079 1 37188U 10054A 25348.66134126 -.00000092 00000+0 68394-4 0 9993 2 37188 52.0057 310.3945 0000553 20.9223 149.8007 12.62269195699246 GLOBALSTAR M074 1 37189U 10054B 25348.97655964 -.00000099 00000+0 25676-4 0 9999 2 37189 52.0035 308.7294 0000650 53.9334 349.5538 12.62264093699899 GLOBALSTAR M076 1 37190U 10054C 25348.91832238 -.00000095 00000+0 47880-4 0 9993 2 37190 52.0046 309.0953 0000722 39.9420 337.6544 12.62268080699603 GLOBALSTAR M077 1 37191U 10054D 25348.54502909 -.00000089 00000+0 -20053-3 0 9998 2 37191 51.9987 288.3119 0001086 24.1982 147.3781 11.68176670699564 GLOBALSTAR M075 1 37192U 10054E 25348.72736174 -.00000087 00000+0 90908-4 0 9996 2 37192 51.9969 351.8310 0000300 79.8789 91.1749 12.62270496698648 GLOBALSTAR M073 1 37193U 10054F 25348.94734394 -.00000095 00000+0 48129-4 0 9990 2 37193 52.0066 265.1227 0000842 45.8240 43.1340 12.62267896700669 GLOBALSTAR M083 1 37739U 11033A 25348.88656551 -.00000080 00000+0 13189-3 0 9996 2 37739 51.9839 213.7880 0000935 66.0978 48.5175 12.62265648669674 GLOBALSTAR M088 1 37740U 11033B 25348.69983541 -.00000098 00000+0 34784-4 0 9993 2 37740 52.0201 120.3345 0001003 113.5014 351.4367 12.62271062665195 GLOBALSTAR M091 1 37741U 11033C 25348.72458809 -.00000094 00000+0 53408-4 0 9992 2 37741 51.9999 83.4987 0000670 131.2375 25.4744 12.62268119665988 GLOBALSTAR M085 1 37742U 11033D 25348.44230537 -.00000095 00000+0 50317-4 0 9995 2 37742 52.0143 35.4887 0000294 156.1608 217.9130 12.62267335666465 GLOBALSTAR M081 1 37743U 11033E 25348.46838613 -.00000091 00000+0 71170-4 0 9993 2 37743 51.9977 38.0544 0000273 111.0016 262.2731 12.62270900666617 GLOBALSTAR M089 1 37744U 11033F 25348.78017719 -.00000083 00000+0 11763-3 0 9997 2 37744 51.9953 351.2996 0000581 73.1269 98.1769 12.62262294667494 GLOBALSTAR M084 1 38040U 11080A 25348.91725664 -.00000084 00000+0 10772-3 0 9999 2 38040 51.9992 218.2678 0001288 73.1526 300.3126 12.62266612645496 GLOBALSTAR M080 1 38041U 11080B 25348.82378497 -.00000083 00000+0 11337-3 0 9995 2 38041 52.0040 220.2065 0000692 98.7567 339.7177 12.62264844645602 GLOBALSTAR M082 1 38042U 11080C 25348.84474336 -.00000076 00000+0 15733-3 0 9993 2 38042 52.0045 175.6232 0000862 104.1997 359.1955 12.62266240646316 GLOBALSTAR M092 1 38043U 11080D 25348.51643402 -.00000095 00000+0 51701-4 0 9997 2 38043 52.0088 267.0101 0000778 61.8747 108.5012 12.62268354644724 GLOBALSTAR M090 1 38044U 11080E 25348.96234554 -.00000078 00000+0 14621-3 0 9991 2 38044 52.0093 169.1619 0000935 87.9971 68.9751 12.62265483646440 GLOBALSTAR M086 1 38045U 11080F 25348.81644921 -.00000070 00000+0 18693-3 0 9994 2 38045 51.9868 169.8360 0001413 41.2809 62.1602 12.62281143646378 GLOBALSTAR M097 1 39072U 13005A 25348.74265376 -.00000113 00000+0 -50955-4 0 9996 2 39072 52.0051 84.7996 0000581 110.1645 249.9284 12.62267798593613 GLOBALSTAR M093 1 39073U 13005B 25348.63737955 -.00000104 00000+0 -33036-5 0 9994 2 39073 52.0112 78.3980 0000327 115.6234 244.4667 12.62271105593551 GLOBALSTAR M094 1 39074U 13005C 25348.95397106 -.00000090 00000+0 74217-4 0 9998 2 39074 51.9976 351.7353 0000193 17.6078 342.4796 12.62265366595206 GLOBALSTAR M096 1 39075U 13005D 25348.88783978 -.00000100 00000+0 20724-4 0 9993 2 39075 52.0090 40.5909 0000228 145.2183 214.8699 12.62269383594116 GLOBALSTAR M078 1 39076U 13005E 25348.70348420 -.00000090 00000+0 74455-4 0 9992 2 39076 51.9859 125.4185 0000936 166.0087 194.0806 12.62272514592710 GLOBALSTAR M095 1 39077U 13005F 25348.80890868 -.00000099 00000+0 27626-4 0 9999 2 39077 52.0064 122.4390 0000601 130.4184 229.6735 12.62267285592588 GLOBALSTAR M087 1 52888U 22064A 25348.90112918 -.00000090 00000+0 78360-4 0 9995 2 52888 52.0000 263.5033 0000625 45.9167 314.1752 12.62261404167866